"Period start","avg(HW err(1)/warn(2) (#))","avg(Visibility (m))","avg(Weather code (#))","avg(Precip intensity (mm/h))","min(HW err(1)/warn(2) (#))","max(HW err(1)/warn(2) (#))","std(HW err(1)/warn(2) (#))","med(HW err(1)/warn(2) (#))","min(Visibility (m))","max(Visibility (m))","std(Visibility (m))","med(Visibility (m))","min(Weather code (#))","max(Weather code (#))","std(Weather code (#))","med(Weather code (#))","min(Precip intensity (mm/h))","max(Precip intensity (mm/h))","std(Precip intensity (mm/h))","med(Precip intensity (mm/h))"
2017-09-17 00:00:00,2,8301,71,1.63,2,2,0,2,1298,30392,8233,4916,71,71,0,71,0.00,5.85,1.98,0.92
2017-09-17 00:10:00,2,18381,64,0.84,2,2,0,2,1858,46822,16294,11790,0,71,21,71,0.00,4.55,1.45,0.03
2017-09-17 00:20:00,2,32294,0,0.00,2,2,0,2,8499,50000,16064,37938,0,0,0,0,0.00,0.00,0.00,0.00
2017-09-17 00:30:00,2,36732,4,0.00,2,2,0,2,5921,49076,14909,43886,0,40,12,0,0.00,0.00,0.00,0.00
2017-09-17 00:40:00,2,10840,57,0.13,2,2,0,2,4812,19961,4405,9967,41,77,16,56,0.00,1.15,0.34,0.00
2017-09-17 00:50:00,2,21781,72,0.11,2,2,0,2,3865,41405,12013,16376,71,77,2,71,0.00,1.00,0.30,0.00
2017-09-17 01:00:00,2,27649,35,0.00,2,2,0,2,17175,43475,8250,26146,0,77,36,20,0.00,0.00,0.00,0.00
2017-09-17 01:10:00,2,32511,0,0.00,2,2,0,2,11221,44138,8945,35117,0,0,0,0,0.00,0.00,0.00,0.00
2017-09-17 01:20:00,2,26356,12,0.07,2,2,0,2,3262,49374,16415,20221,0,41,19,0,0.00,0.60,0.18,0.00
2017-09-17 01:30:00,2,7284,60,1.55,2,2,0,2,1849,26125,7643,2916,41,77,16,71,0.00,5.10,1.82,0.92
2017-09-17 01:40:00,2,8449,57,1.66,2,2,0,2,1337,25913,7353,7452,0,71,28,71,0.00,6.35,2.07,0.78
2017-09-17 01:50:00,2,8745,64,2.29,2,2,0,2,1360,28411,8813,4549,0,71,21,71,0.00,6.85,2.59,1.10
2017-09-17 02:00:00,2,20546,57,0.19,2,2,0,2,4550,37666,9752,19688,0,71,28,71,0.00,1.40,0.41,0.00
2017-09-17 02:10:00,2,31726,0,0.00,2,2,0,2,7759,44342,12231,36184,0,0,0,0,0.00,0.00,0.00,0.00
2017-09-17 02:20:00,2,17537,20,0.13,2,2,0,2,5252,31422,7545,19712,0,41,20,20,0.00,0.65,0.24,0.00
2017-09-17 02:30:00,2,22205,71,0.10,2,2,0,2,7868,46578,10763,21304,71,71,0,71,0.00,0.60,0.18,0.00
2017-09-17 02:40:00,2,11417,52,0.15,2,2,0,2,6065,22753,5517,9338,0,71,22,56,0.00,1.15,0.34,0.03
2017-09-17 02:50:00,2,27137,25,0.00,2,2,0,2,5309,42263,11910,30328,0,41,20,41,0.00,0.00,0.00,0.00
2017-09-17 03:00:00,2,42751,0,0.00,2,2,0,2,26262,50000,8352,47614,0,0,0,0,0.00,0.00,0.00,0.00
2017-09-17 03:10:00,2,34968,0,0.00,2,2,0,2,9916,50000,14256,40103,0,0,0,0,0.00,0.00,0.00,0.00
2017-09-17 03:20:00,2,36224,20,0.00,2,2,0,2,12245,50000,12917,39620,0,41,20,20,0.00,0.00,0.00,0.00
2017-09-17 03:30:00,2,43238,0,0.00,2,2,0,2,25191,50000,8273,47843,0,0,0,0,0.00,0.00,0.00,0.00
2017-09-17 03:40:00,2,41192,0,0.00,2,2,0,2,11026,50000,12390,46732,0,0,0,0,0.00,0.00,0.00,0.00
2017-09-17 03:50:00,2,4712,59,0.56,2,2,0,2,3080,7648,1454,4266,41,71,15,71,0.00,1.60,0.52,0.28
2017-09-17 04:00:00,2,8862,48,1.11,2,2,0,2,1825,24398,7835,4754,0,71,27,56,0.00,3.25,1.02,1.10
2017-09-17 04:10:00,2,11323,48,0.86,2,2,0,2,1678,24725,8181,11670,0,71,27,56,0.00,3.25,1.27,0.05
2017-09-17 04:20:00,2,2944,68,1.96,2,2,0,2,1465,6280,1546,2470,41,71,9,71,0.60,3.50,0.87,2.12
2017-09-17 04:30:00,2,11626,64,0.11,2,2,0,2,3565,22448,5594,11696,0,71,21,71,0.00,0.40,0.14,0.00
2017-09-17 04:40:00,2,20583,25,0.00,2,2,0,2,5650,45508,12067,19870,0,41,20,41,0.00,0.00,0.00,0.00
2017-09-17 04:50:00,2,26945,12,0.00,2,2,0,2,6245,39227,11488,32974,0,41,19,0,0.00,0.00,0.00,0.00
2017-09-17 05:00:00,2,28094,8,0.00,2,2,0,2,17592,41335,6240,28386,0,41,16,0,0.00,0.00,0.00,0.00
2017-09-17 05:10:00,2,12355,45,1.96,2,2,0,2,1351,44840,16035,4258,0,71,26,41,0.00,4.80,1.83,1.77
2017-09-17 05:20:00,2,28509,21,0.29,2,2,0,2,4395,50000,18227,29478,0,71,33,0,0.00,1.30,0.48,0.00
2017-09-17 05:30:00,2,20661,57,0.04,2,2,0,2,10342,44156,10312,16372,0,77,29,71,0.00,0.20,0.06,0.03
2017-09-17 05:40:00,2,21517,44,0.12,2,2,0,2,4774,41120,11007,19774,0,77,36,71,0.00,1.10,0.33,0.00
2017-09-17 05:50:00,2,3664,71,1.76,2,2,0,2,1701,10276,2316,3216,71,71,0,71,0.10,4.45,1.46,1.35
2017-09-17 06:00:00,2,9066,71,0.67,2,2,0,2,1916,21233,6921,6090,71,71,0,71,0.00,2.00,0.65,0.53
2017-09-17 06:10:00,2,11306,71,1.98,2,2,0,2,1170,43781,13614,4883,71,71,0,71,0.00,6.60,2.33,0.98
2017-09-17 06:20:00,2,49154,0,0.00,2,2,0,2,44058,50000,1773,50000,0,0,0,0,0.00,0.00,0.00,0.00
2017-09-17 06:30:00,2,33931,15,0.32,2,2,0,2,3871,50000,18847,42797,0,71,24,0,0.00,1.75,0.56,0.00
2017-09-17 06:40:00,2,22494,71,0.24,2,2,0,2,5906,50000,14830,19832,71,71,0,71,0.00,1.05,0.34,0.05
2017-09-17 06:50:00,2,46873,7,0.00,2,2,0,2,27819,50000,6779,50000,0,71,21,0,0.00,0.00,0.00,0.00
2017-09-17 07:00:00,2,48114,0,0.00,2,2,0,2,42543,50000,2520,49912,0,0,0,0,0.00,0.00,0.00,0.00
2017-09-17 07:10:00,2,48750,0,0.00,2,2,0,2,44790,50000,1761,49964,0,0,0,0,0.00,0.00,0.00,0.00
2017-09-17 07:20:00,2,49603,0,0.00,2,2,0,2,47461,50000,831,50000,0,0,0,0,0.00,0.00,0.00,0.00
2017-09-17 07:30:00,2,49392,0,0.00,2,2,0,2,46952,50000,1215,50000,0,0,0,0,0.00,0.00,0.00,0.00
2017-09-17 07:40:00,2,49843,0,0.00,2,2,0,2,48551,50000,432,50000,0,0,0,0,0.00,0.00,0.00,0.00
2017-09-17 07:50:00,2,49451,0,0.00,2,2,0,2,45928,50000,1248,50000,0,0,0,0,0.00,0.00,0.00,0.00
2017-09-17 08:00:00,2,49266,0,0.00,2,2,0,2,43885,50000,1819,50000,0,0,0,0,0.00,0.00,0.00,0.00
2017-09-17 08:10:00,2,49960,0,0.00,2,2,0,2,49597,50000,121,50000,0,0,0,0,0.00,0.00,0.00,0.00
2017-09-17 08:20:00,2,40581,0,0.00,2,2,0,2,22193,50000,11395,47473,0,0,0,0,0.00,0.00,0.00,0.00
2017-09-17 08:30:00,2,37292,0,0.00,2,2,0,2,11745,50000,13513,42342,0,0,0,0,0.00,0.00,0.00,0.00
2017-09-17 08:40:00,2,28413,22,0.65,2,2,0,2,2136,50000,19850,37940,0,71,29,0,0.00,3.85,1.20,0.00
2017-09-17 08:50:00,2,7198,48,1.74,2,2,0,2,1827,17453,5636,6041,0,71,27,56,0.00,5.10,1.72,1.35
2017-09-17 09:00:00,2,10334,71,0.42,2,2,0,2,4467,26413,6522,7404,71,71,0,71,0.00,1.00,0.40,0.35
2017-09-17 09:10:00,2,27558,50,0.24,2,2,0,2,3173,50000,15209,26890,0,71,33,71,0.00,2.25,0.67,0.00
2017-09-17 09:20:00,2,5294,71,1.92,2,2,0,2,1957,12531,3393,4259,71,71,0,71,0.30,4.85,1.56,1.02
2017-09-17 09:30:00,2,3792,71,2.71,2,2,0,2,1343,11776,3008,2618,71,71,0,71,0.05,5.70,1.91,2.42
2017-09-17 09:40:00,2,13390,71,1.60,2,2,0,2,1205,42426,14311,7542,71,71,0,71,0.00,6.85,2.45,0.15
2017-09-17 09:50:00,2,37560,7,0.00,2,2,0,2,12777,48199,12554,44485,0,71,21,0,0.00,0.00,0.00,0.00
2017-09-17 10:00:00,2,41898,0,0.00,2,2,0,2,26663,50000,9010,46356,0,0,0,0,0.00,0.00,0.00,0.00
2017-09-17 10:10:00,2,32301,28,0.49,2,2,0,2,2886,50000,21754,50000,0,71,35,0,0.00,4.10,1.22,0.00
2017-09-17 10:20:00,2,7948,71,0.88,2,2,0,2,2575,21660,6382,5026,71,71,0,71,0.00,1.80,0.70,0.95
2017-09-17 10:30:00,2,26409,50,0.03,2,2,0,2,9645,50000,14010,21249,0,71,33,71,0.00,0.15,0.05,0.00
2017-09-17 10:40:00,2,20460,71,0.20,2,2,0,2,4066,50000,16113,16110,71,71,0,71,0.00,0.85,0.27,0.03
2017-09-17 10:50:00,2,2421,71,3.45,2,2,0,2,1402,4759,1052,2248,71,71,0,71,1.35,7.55,1.73,3.08
2017-09-17 11:00:00,2,23730,36,0.72,2,2,0,2,3076,50000,19805,17131,0,71,36,36,0.00,1.90,0.79,0.30
2017-09-17 11:10:00,2,5480,58,3.26,2,2,0,2,1491,32162,8958,2104,0,71,23,71,0.00,6.15,1.99,3.42
2017-09-17 11:20:00,2,15700,71,1.77,2,2,0,2,1660,36546,13990,9644,71,71,0,71,0.00,4.95,2.07,0.57
2017-09-17 11:30:00,2,18522,45,0.45,2,2,0,2,3338,50000,15590,12174,0,71,26,41,0.00,2.60,0.76,0.08
2017-09-17 11:40:00,2,15185,71,0.10,2,2,0,2,5269,28192,7732,14200,71,71,0,71,0.00,0.50,0.16,0.03
2017-09-17 11:50:00,2,5770,71,1.76,2,2,0,2,1246,10370,3202,6301,71,71,0,71,0.05,5.70,1.90,0.70
2017-09-17 12:00:00,2,34129,28,0.10,2,2,0,2,5179,50000,18667,43986,0,71,35,0,0.00,0.50,0.16,0.00
2017-09-17 12:10:00,2,47776,0,0.00,2,2,0,2,36703,50000,4553,50000,0,0,0,0,0.00,0.00,0.00,0.00
2017-09-17 12:20:00,2,12520,51,1.42,2,2,0,2,1768,45938,16368,4236,0,71,28,71,0.00,4.30,1.27,1.30
2017-09-17 12:30:00,2,2577,71,3.30,2,2,0,2,997,8276,2100,1638,71,71,0,71,0.10,6.85,1.95,3.83
2017-09-17 12:40:00,2,11157,71,0.58,2,2,0,2,4162,27029,7563,7124,71,71,0,71,0.00,1.65,0.59,0.42
2017-09-17 12:50:00,2,8830,71,0.78,2,2,0,2,1990,20732,6355,5993,71,71,0,71,0.00,3.15,0.91,0.48
2017-09-17 13:00:00,2,11328,71,0.60,2,2,0,2,3876,26239,7620,6809,71,71,0,71,0.00,1.45,0.52,0.65
2017-09-17 13:10:00,2,13520,71,0.15,2,2,0,2,4739,28058,8007,11019,71,71,0,71,0.00,0.55,0.16,0.12
2017-09-17 13:20:00,2,5060,71,1.39,2,2,0,2,2531,8369,1746,5702,71,71,0,71,0.60,2.55,0.70,1.15
2017-09-17 13:30:00,2,6146,71,1.19,2,2,0,2,2547,15228,4568,3802,71,71,0,71,0.00,2.50,0.86,1.33
2017-09-17 13:40:00,2,11499,71,0.57,2,2,0,2,2831,36131,10589,5706,71,71,0,71,0.00,3.15,0.93,0.17
2017-09-17 13:50:00,2,9904,71,1.66,2,2,0,2,2128,28969,8946,7026,71,71,0,71,0.00,4.15,1.72,0.82
2017-09-17 14:00:00,2,31330,72,0.11,2,2,0,2,6657,50000,17057,34951,71,77,2,71,0.00,0.55,0.21,0.00
2017-09-17 14:10:00,2,47920,22,0.00,2,2,0,2,37511,50000,4221,50000,0,77,33,0,0.00,0.00,0.00,0.00
2017-09-17 14:20:00,2,32410,28,0.02,2,2,0,2,8050,50000,18482,40025,0,71,35,0,0.00,0.15,0.05,0.00
2017-09-17 14:30:00,2,13358,50,0.45,2,2,0,2,3053,42218,13661,5830,0,71,33,71,0.00,1.30,0.44,0.33
2017-09-17 14:40:00,2,15293,43,1.76,2,2,0,2,1193,49049,17304,7304,0,71,35,71,0.00,4.05,1.79,1.47
2017-09-17 14:50:00,2,12449,71,0.92,2,2,0,2,3521,42946,12757,5492,71,71,0,71,0.00,2.10,0.72,0.92
2017-09-17 15:00:00,2,50000,7,0.00,2,2,0,2,50000,50000,0,50000,0,71,21,0,0.00,0.00,0.00,0.00
2017-09-17 15:10:00,2,45758,21,0.00,2,2,0,2,31236,50000,6825,49879,0,71,33,0,0.00,0.00,0.00,0.00
2017-09-17 15:20:00,2,50000,0,0.00,2,2,0,2,50000,50000,0,50000,0,0,0,0,0.00,0.00,0.00,0.00
2017-09-17 15:30:00,2,50000,0,0.00,2,2,0,2,50000,50000,0,50000,0,0,0,0,0.00,0.00,0.00,0.00
2017-09-17 15:40:00,2,50000,0,0.00,2,2,0,2,50000,50000,0,50000,0,0,0,0,0.00,0.00,0.00,0.00
2017-09-17 15:50:00,2,49024,0,0.00,2,2,0,2,43325,50000,2111,50000,0,0,0,0,0.00,0.00,0.00,0.00
2017-09-17 16:00:00,2,20892,39,0.18,2,2,0,2,4348,49082,14790,16840,0,77,29,41,0.00,1.25,0.37,0.00
2017-09-17 16:10:00,2,15458,36,1.09,2,2,0,2,1546,36666,12805,11860,0,71,36,36,0.00,4.40,1.67,0.00
2017-09-17 16:20:00,2,1435,71,4.27,2,2,0,2,1163,1775,201,1439,71,71,0,71,2.90,6.85,1.18,3.85
2017-09-17 16:30:00,2,1803,71,3.58,2,2,0,2,1412,2422,308,1774,71,71,0,71,2.75,4.55,0.66,3.38
2017-09-17 16:40:00,2,23128,71,0.14,2,2,0,2,5230,50000,16380,15693,71,71,0,71,0.00,0.60,0.20,0.03
2017-09-17 16:50:00,2,27616,36,0.11,2,2,0,2,7045,50000,17898,22945,0,71,32,40,0.00,0.75,0.22,0.00
2017-09-17 17:00:00,2,41934,50,0.01,2,2,0,2,13916,50000,11818,48502,0,77,33,71,0.00,0.05,0.02,0.00
2017-09-17 17:10:00,2,39122,43,0.01,2,2,0,2,9047,50000,15482,49345,0,77,35,71,0.00,0.05,0.02,0.00
2017-09-17 17:20:00,2,50000,0,0.00,2,2,0,2,50000,50000,0,50000,0,0,0,0,0.00,0.00,0.00,0.00
2017-09-17 17:30:00,2,38442,14,0.00,2,2,0,2,13652,50000,14383,46406,0,71,28,0,0.00,0.00,0.00,0.00
2017-09-17 17:40:00,2,16722,67,0.07,2,2,0,2,4588,44413,12286,13021,0,77,22,74,0.00,0.45,0.13,0.03
2017-09-17 17:50:00,2,9126,64,0.80,2,2,0,2,1921,50000,13797,4724,0,71,21,71,0.00,2.95,0.93,0.50
2017-09-17 18:00:00,2,3754,71,1.60,2,2,0,2,1248,7045,1654,3836,71,71,0,71,0.10,5.75,1.79,0.68
2017-09-17 18:10:00,2,4076,71,1.92,2,2,0,2,1112,13200,3701,2601,71,71,0,71,0.00,5.20,1.74,1.20
2017-09-17 18:20:00,2,26183,50,0.07,2,2,0,2,7462,50000,17271,18502,0,71,33,71,0.00,0.30,0.12,0.00
2017-09-17 18:30:00,2,18073,71,0.25,2,2,0,2,6079,34618,10218,17340,71,71,0,71,0.00,0.80,0.30,0.12
2017-09-17 18:40:00,2,3114,71,1.62,2,2,0,2,1683,6605,1424,2390,71,71,0,71,0.25,3.95,1.29,1.25
2017-09-17 18:50:00,2,13990,71,0.04,2,2,0,2,6412,25277,6530,11257,71,71,0,71,0.00,0.10,0.04,0.03
2017-09-17 19:00:00,2,16150,74,0.03,2,2,0,2,9068,24076,4489,14857,71,77,3,74,0.00,0.05,0.02,0.05
2017-09-17 19:10:00,2,6213,72,0.91,2,2,0,2,2590,10601,2490,5548,71,77,2,71,0.00,3.60,1.08,0.43
2017-09-17 19:20:00,2,20762,72,0.01,2,2,0,2,9976,36079,8924,17658,71,77,2,71,0.00,0.05,0.02,0.00
2017-09-17 19:30:00,2,22236,66,0.07,2,2,0,2,9911,43179,11113,18658,0,77,22,71,0.00,0.25,0.09,0.03
2017-09-17 19:40:00,2,34032,21,0.08,2,2,0,2,4197,50000,17264,39982,0,71,33,0,0.00,0.80,0.24,0.00
2017-09-17 19:50:00,2,9810,71,0.42,2,2,0,2,3919,26745,6493,7186,71,71,0,71,0.00,1.45,0.51,0.23
2017-09-17 20:00:00,2,4122,71,1.77,2,2,0,2,1814,15303,3774,3072,71,71,0,71,0.00,3.35,0.97,1.78
2017-09-17 20:10:00,2,4066,71,1.61,2,2,0,2,1895,7750,2349,3150,71,71,0,71,0.10,4.55,1.49,1.20
2017-09-17 20:20:00,2,6608,71,0.82,2,2,0,2,2257,22151,6088,3520,71,71,0,71,0.00,1.90,0.68,0.82
2017-09-17 20:30:00,2,36066,33,0.01,2,2,0,2,15781,50000,14358,41712,0,71,30,40,0.00,0.05,0.02,0.00
2017-09-17 20:40:00,2,4250,68,1.94,2,2,0,2,1083,10474,2718,3579,40,71,9,71,0.10,4.75,1.41,1.62
2017-09-17 20:50:00,2,3366,71,1.57,2,2,0,2,1448,6888,1562,3055,71,71,0,71,0.45,3.40,1.02,1.18
2017-09-17 21:00:00,2,29974,57,0.01,2,2,0,2,8850,50000,17089,28438,0,71,28,71,0.00,0.05,0.02,0.00
2017-09-17 21:10:00,2,50000,0,0.00,2,2,0,2,50000,50000,0,50000,0,0,0,0,0.00,0.00,0.00,0.00
2017-09-17 21:20:00,2,50000,0,0.00,2,2,0,2,50000,50000,0,50000,0,0,0,0,0.00,0.00,0.00,0.00
2017-09-17 21:30:00,2,49686,0,0.00,2,2,0,2,48401,50000,562,50000,0,0,0,0,0.00,0.00,0.00,0.00
2017-09-17 21:40:00,2,50000,0,0.00,2,2,0,2,50000,50000,0,50000,0,0,0,0,0.00,0.00,0.00,0.00
2017-09-17 21:50:00,2,49960,0,0.00,2,2,0,2,49605,50000,118,50000,0,0,0,0,0.00,0.00,0.00,0.00
2017-09-17 22:00:00,2,49963,0,0.00,2,2,0,2,49627,50000,112,50000,0,0,0,0,0.00,0.00,0.00,0.00
2017-09-17 22:10:00,2,50000,0,0.00,2,2,0,2,50000,50000,0,50000,0,0,0,0,0.00,0.00,0.00,0.00
2017-09-17 22:20:00,2,48366,0,0.00,2,2,0,2,40834,50000,2711,49686,0,0,0,0,0.00,0.00,0.00,0.00
2017-09-17 22:30:00,2,48778,0,0.00,2,2,0,2,46855,50000,1268,49016,0,0,0,0,0.00,0.00,0.00,0.00
2017-09-17 22:40:00,2,46519,4,0.00,2,2,0,2,37752,50000,5063,49712,0,40,12,0,0.00,0.00,0.00,0.00
2017-09-17 22:50:00,2,34611,41,0.01,2,2,0,2,19599,45741,7398,34543,41,41,0,41,0.00,0.05,0.02,0.00
2017-09-17 23:00:00,2,49882,8,0.00,2,2,0,2,48843,50000,346,50000,0,41,16,0,0.00,0.00,0.00,0.00
2017-09-17 23:10:00,2,49974,0,0.00,2,2,0,2,49737,50000,79,50000,0,0,0,0,0.00,0.00,0.00,0.00
2017-09-17 23:20:00,2,49715,0,0.00,2,2,0,2,47152,50000,854,50000,0,0,0,0,0.00,0.00,0.00,0.00
2017-09-17 23:30:00,2,50000,0,0.00,2,2,0,2,50000,50000,0,50000,0,0,0,0,0.00,0.00,0.00,0.00
2017-09-17 23:40:00,2,49357,0,0.00,2,2,0,2,47056,50000,1050,50000,0,0,0,0,0.00,0.00,0.00,0.00
2017-09-17 23:50:00,2,49589,0,0.00,2,2,0,2,46172,50000,1142,50000,0,0,0,0,0.00,0.00,0.00,0.00
